EW6866 Weather Reports


time (UTC)temp
C
wind
direction
speed
KPH
gust
KPH
rain 1hr
cm
rain 24hr
cm
rain mn
cm
humidity
%
barometer
mb
20260904051505 26 217 0.0 4.8 0.00 0.00 0.00 90 1014.7
20260904050005 26 213 1.6 6.4 0.00 0.00 0.00 90 1014.7
20260904044505 26 217 0.0 9.7 0.00 0.00 0.00 89 1014.6
20260904043005 27 171 0.0 4.8 0.00 0.00 0.00 88 1014.8
20260904041505 27 166 0.0 6.4 0.00 0.00 0.00 88 1014.8
20260904040007 27 180 1.6 6.4 0.00 0.00 0.00 87 1014.7
20260904034505 27 199 0.0 6.4 0.00 0.00 0.00 87 1014.6
20260904033005 27 227 0.0 1.6 0.00 0.00 0.00 86 1014.7
20260904031505 27 242 1.6 8.0 0.00 0.00 0.00 85 1014.8
20260904030005 27 195 1.6 6.4 0.00 0.00 0.00 85 1014.8
20260904024505 27 152 1.6 6.4 0.00 0.00 0.00 85 1014.8
20260904023005 28 234 1.6 6.4 0.00 0.00 0.00 84 1015.0
20260904021505 28 209 1.6 9.7 0.00 0.00 0.00 84 1015.1
20260904020025 28 179 1.6 6.4 0.00 0.00 0.00 84 1015.2
20260904014504 28 199 1.6 11.3 0.00 0.00 0.00 83 1015.2
20260904013005 28 174 0.0 3.2 0.00 0.00 0.00 83 1015.0
20260904011505 29 202 0.0 6.4 0.00 0.00 0.00 83 1014.9
20260904010004 29 246 0.0 6.4 0.00 0.00 0.00 83 1014.8
20260904004505 30 222 0.0 6.4 0.00 0.00 0.00 84 1014.4
20260904003005 30 187 0.0 6.4 0.00 0.00 0.00 85 1014.1
20260904001505 30 269 0.0 1.6 0.00 0.00 0.00 84 1013.7
20260904000025 30 137 0.0 1.6 0.00 0.00 0.00 83 1013.5
20260903234506 30 0 0.0 0.0 0.00 0.00 0.00 81 1013.3
20260903233005 31 141 0.0 1.6 0.00 0.00 0.00 79 1013.2
20260903231504 31 0 0.0 0.0 0.00 0.00 0.00 78 1013.2
20260903230005 32 139 0.0 1.6 0.00 0.00 0.00 76 1013.3
20260903224505 32 151 0.0 1.6 0.00 0.00 0.00 75 1013.1
20260903223025 32 132 0.0 3.2 0.00 0.00 0.00 73 1013.2
20260903221504 33 156 0.0 4.8 0.00 0.00 0.00 71 1013.2
20260903220004 33 200 0.0 6.4 0.00 0.00 0.00 69 1013.3
20260903214505 33 190 1.6 6.4 0.00 0.00 0.00 68 1013.3
20260903213004 35 190 1.6 9.7 0.00 0.00 0.00 65 1013.3
20260903211504 35 180 1.6 8.0 0.00 0.00 0.00 62 1013.5
20260903210005 36 164 0.0 8.0 0.00 0.00 0.00 62 1013.6
20260903204504 35 178 1.6 11.3 0.00 0.00 0.00 62 1013.6
20260903203004 36 182 1.6 4.8 0.00 0.00 0.00 62 1013.7
20260903201504 36 171 1.6 6.4 0.00 0.00 0.00 61 1014.0
20260903200026 36 173 0.0 8.0 0.00 0.00 0.00 61 1014.2
20260903194504 36 159 1.6 9.7 0.00 0.00 0.00 63 1014.3
20260903193005 35 196 1.6 8.0 0.00 0.00 0.00 63 1014.5
20260903191504 35 174 1.6 9.7 0.00 0.00 0.00 65 1014.5
20260903190005 35 178 1.6 4.8 0.00 0.00 0.00 65 1014.7
20260903184504 35 236 1.6 9.7 0.00 0.00 0.00 67 1014.7
20260903183004 35 162 1.6 6.4 0.00 0.00 0.00 66 1014.8
20260903181504 35 174 1.6 8.0 0.00 0.00 0.00 67 1014.8
20260903180004 35 198 1.6 11.3 0.00 0.00 0.00 68 1015.0
20260903174525 35 223 1.6 8.0 0.00 0.00 0.00 69 1015.3
20260903173004 34 216 1.6 8.0 0.00 0.00 0.00 70 1015.3
20260903171504 34 163 1.6 6.4 0.00 0.00 0.00 72 1015.5
20260903170004 34 158 1.6 8.0 0.00 0.00 0.00 71 1015.7
20260903164525 34 174 0.0 6.4 0.00 0.00 0.00 71 1015.8
20260903163004 33 186 1.6 4.8 0.00 0.00 0.00 73 1015.9
20260903161504 33 198 1.6 8.0 0.00 0.00 0.00 72 1015.9
20260903160025 33 247 1.6 8.0 0.00 0.00 0.00 75 1016.0
20260903154504 32 219 1.6 8.0 0.00 0.00 0.00 75 1016.3
20260903153004 32 186 1.6 4.8 0.00 0.00 0.00 76 1016.5
20260903151525 32 280 0.0 8.0 0.00 0.00 0.00 78 1016.5
20260903150004 31 159 0.0 4.8 0.00 0.00 0.00 80 1016.4
20260903144503 30 174 0.0 3.2 0.00 0.00 0.00 84 1016.3
20260903143004 30 197 0.0 6.4 0.00 0.00 0.00 83 1016.4
20260903141504 29 181 0.0 4.8 0.00 0.00 0.00 84 1016.5
20260903140004 28 187 0.0 3.2 0.00 0.00 0.00 86 1016.2
20260903134504 28 169 0.0 6.4 0.00 0.00 0.00 87 1016.2
20260903133004 27 243 0.0 4.8 0.00 0.00 0.00 89 1016.2
20260903131503 27 159 0.0 4.8 0.00 0.00 0.00 91 1016.4
20260903130025 26 178 0.0 3.2 0.00 0.00 0.00 93 1016.5
20260903124504 26 160 0.0 4.8 0.00 0.00 0.00 95 1016.5
20260903123004 26 178 0.0 3.2 0.00 0.00 0.00 97 1016.7
20260903121504 25 141 0.0 1.6 0.00 0.00 0.00 98 1016.7
20260903120005 25 0 0.0 0.0 0.00 0.00 0.00 98 1016.7
20260903114503 24 0 0.0 0.0 0.00 0.00 0.00 98 1016.6
20260903113004 24 0 0.0 0.0 0.00 0.00 0.00 98 1016.4
20260903111504 24 0 0.0 0.0 0.00 0.00 0.00 98 1016.2
20260903110003 24 0 0.0 0.0 0.00 0.00 0.00 98 1016.0
20260903104504 23 0 0.0 0.0 0.00 0.00 0.00 98 1015.7
20260903103004 24 0 0.0 0.0 0.00 0.00 0.00 98 1015.6
20260903101503 23 0 0.0 0.0 0.00 0.00 0.00 98 1015.6
20260903100004 23 0 0.0 0.0 0.00 0.00 0.00 97 1015.6
20260903094503 24 0 0.0 0.0 0.00 0.00 0.00 97 1015.4
20260903093003 24 0 0.0 0.0 0.00 0.00 0.00 98 1015.5
20260903091504 24 0 0.0 0.0 0.00 0.00 0.00 98 1015.4
20260903090024 24 0 0.0 0.0 0.00 0.00 0.00 97 1015.2
20260903084503 24 0 0.0 0.0 0.00 0.00 0.00 97 1015.2
20260903083004 24 0 0.0 0.0 0.00 0.00 0.00 97 1015.2
20260903081503 24 0 0.0 0.0 0.00 0.00 0.00 97 1015.2
20260903080004 24 0 0.0 0.0 0.00 0.00 0.00 97 1015.2
20260903074505 25 0 0.0 0.0 0.00 0.00 0.00 97 1015.1
20260903073006 25 0 0.0 0.0 0.00 0.00 0.00 97 1015.4
20260903071505 25 0 0.0 0.0 0.00 0.00 0.00 97 1015.1
20260903070005 25 0 0.0 0.0 0.00 0.00 0.00 97 1015.3
20260903064506 25 0 0.0 0.0 0.00 0.00 0.00 97 1015.3
20260903063005 25 0 0.0 0.0 0.00 0.00 0.00 97 1015.4
20260903061505 25 0 0.0 0.0 0.00 0.00 0.00 97 1015.5
20260903060005 25 0 0.0 0.0 0.00 0.00 0.00 97 1015.5
20260903054527 25 0 0.0 0.0 0.00 0.00 0.00 96 1015.5
20260903053005 26 0 0.0 0.0 0.00 0.00 0.00 97 1015.4